www.pogodaiklimat.ru

Погода и климат >> Архив погоды >> Германия >> Berlin


АРХИВ ПОГОДЫ в Berlin

Время (UTC), дата Ветер
(напр.,м/с)
 
Видим.   Явления Облачность Т
(С)
Тd
(С)
f
(%)
Тe
(С)
Тes
(С)
Комфортность P
(гПа)
Po
(гПа)
Тmin
(С)
Tmax
(С)
R
(мм)
R24
(мм)
S
(см)
10 12.12 С 3-4
{5}
н/о н/о +3.5 +2.0 90 -1 -1 тепло 1024.4 1018.2
11 12.12 С 3-4
{6}
н/о н/о +4.0 +1.8 86 0 0 тепло 1024.4 1018.3
12 12.12 СВ 4-5
{7}
н/о н/о +4.4 +1.5 81 0 0 по сезону 1024.4 1018.3 0.0
14 12.12 СВ 4-6
{6}
н/о н/о +3.8 -0.5 73 -1 -1 тепло 1024.8 1018.6
13 12.12 СВ 3-5
{5}
н/о н/о +3.8 +0.7 80 0 0 тепло 1024.6 1018.4
15 12.12 СВ 2-4
{6}
н/о н/о +2.3 -1.9 74 -1 -1 по сезону 1024.9 1018.7
16 12.12 СВ 2-3
{4}
н/о н/о +2.3 -0.5 82 -1 -1 тепло 1025.5 1019.3
17 12.12 СВ 3-4
{4}
н/о н/о +2.7 -0.1 82 -1 -1 тепло 1025.7 1019.5
18 12.12 СВ 4 н/о н/о +1.9 -1.6 78 -3 -3 по сезону 1026.0 1019.8 +1.8 +4.5
20 12.12 В 2-2
{3}
н/о н/о +1.2 -1.1 85 -2 -2 тепло 1026.5 1020.3
19 12.12 СВ 2-2
{5}
н/о н/о +0.9 -1.8 82 -3 -3 по сезону 1026.3 1020.1
21 12.12 В 2-3
{5}
н/о н/о +2.0 -0.6 83 -1 -1 по сезону 1026.4 1020.2
22 12.12 СВ 1-2
{3}
н/о н/о +1.8 -0.3 86 0 0 тепло 1026.3 1020.1
23 12.12 С 2-3
{3}
н/о н/о +2.1 +0.2 87 -1 -1 тепло 1026.1 1019.9
00 13.12 СВ 2 н/о н/о +2.3 +0.6 89 -1 -1 по сезону 1026.0 1019.8
02 13.12 СВ 2-3
{4}
н/о н/о +2.2 +0.9 91 -1 -1 тепло 1025.6 1019.4
01 13.12 СВ 3-4
{4}
н/о н/о +2.3 +0.8 90 -2 -2 тепло 1025.8 1019.6
03 13.12 СВ 3-4
{4}
н/о н/о +2.2 +0.7 90 -2 -2 по сезону 1025.4 1019.2
04 13.12 СВ 3-4
{4}
н/о н/о +2.1 +0.7 90 -2 -2 тепло 1025.1 1018.9
05 13.12 СВ 3-4
{4}
н/о н/о +2.1 +0.5 89 -2 -2 тепло 1024.9 1018.7
06 13.12 СВ 3 н/о н/о +2.1 +0.5 89 -2 -2 по сезону 1024.7 1018.5 +0.9 +2.3
08 13.12 СВ 3-5
{5}
н/о н/о +1.9 +0.6 91 -2 -2 тепло 1024.9 1018.7
07 13.12 СВ 3-4
{4}
н/о н/о +2.1 +0.6 90 -2 -2 по сезону 1024.7 1018.5
09 13.12 СВ 3 н/о н/о +2.1 +0.4 88 -2 -2 по сезону 1024.8 1018.6
10 13.12 СВ 3-4
{4}
н/о н/о +2.2 +0.2 87 -2 -2 тепло 1024.7 1018.5
11 13.12 СВ 2-4
{4}
н/о н/о +2.3 +0.2 86 -1 -1 по сезону 1024.3 1018.1
12 13.12 В 4-5
{5}
н/о н/о +2.3 +0.2 86 -3 -3 по сезону 1024.2 1018.0
14 13.12 В 4-5
{6}
н/о н/о +2.0 +0.3 88 -3 -3 тепло 1023.9 1017.7
13 13.12 В 4-5
{6}
н/о н/о +1.9 +0.3 89 -3 -3 по сезону 1024.0 1017.8
15 13.12 В 2-3
{6}
н/о н/о +2.1 0.0 86 -1 -1 по сезону 1023.8 1017.6 0.0
16 13.12 В 2-4
{4}
н/о н/о +2.0 -0.1 86 -1 -1 тепло 1023.8 1017.6
17 13.12 В 3-5
{6}
н/о н/о +2.1 -0.3 84 -2 -2 по сезону 1023.8 1017.6
18 13.12 В 3 н/о н/о +1.9 -1.0 81 -2 -2 по сезону 1023.9 1017.7 +1.8 +2.4 0.0
20 13.12 В 2-3
{5}
н/о н/о +1.5 -0.8 85 -2 -2 тепло 1024.3 1018.1
19 13.12 В 3-4
{5}
н/о н/о +1.7 -1.5 79 -2 -2 по сезону 1024.0 1017.8
21 13.12 В 3-4
{5}
н/о н/о +1.3 -1.1 84 -3 -3 по сезону 1024.4 1018.2 0.0
22 13.12 В 2-4
{4}
н/о н/о +1.3 -0.7 87 -2 -2 тепло 1024.6 1018.4
23 13.12 ЮВ 3-4
{4}
н/о н/о +1.3 -1.1 84 -3 -3 по сезону 1024.6 1018.4
00 14.12 В 2 н/о н/о +1.0 -1.7 82 -2 -2 по сезону 1024.5 1018.3 0.0
02 14.12 В 3-5
{5}
н/о н/о +0.6 -2.8 78 -4 -4 по сезону 1025.0 1018.8
03 14.12 В 4-5
{5}
н/о н/о +0.4 -3.3 76 -5 -5 по сезону 1024.9 1018.7
04 14.12 В 3-5
{6}
н/о н/о +0.1 -3.4 77 -4 -4 тепло 1024.9 1018.7
05 14.12 В 2-3
{6}
н/о н/о -0.1 -3.1 80 -4 -4 по сезону 1025.0 1018.8
06 14.12 В 3 н/о н/о 0.0 -2.9 81 -5 -5 по сезону 1025.2 1019.0 -0.2 +1.9 0.0
07 14.12 В 4-6
{6}
н/о н/о +0.1 -2.8 81 -5 -5 тепло 1025.5 1019.3
08 14.12 В 4-5
{6}
н/о н/о +0.1 -2.7 81 -5 -5 по сезону 1025.9 1019.7
09 14.12 В 3 н/о н/о +0.2 -2.9 80 -4 -4 по сезону 1026.4 1020.2
10 14.12 В 4-5
{6}
н/о н/о +0.5 -3.3 76 -5 -5 тепло 1026.7 1020.5
11 14.12 В 4-6
{6}
н/о н/о +0.8 -3.4 73 -4 -4 по сезону 1026.7 1020.5
12 14.12 В 3-5
{6}
н/о н/о +1.0 -4.1 69 -3 -3 по сезону 1026.8 1020.6
13 14.12 В 4-5
{6}
н/о н/о +0.9 -4.0 70 -4 -4 тепло 1026.9 1020.7
14 14.12 В 3-4
{5}
н/о н/о +0.6 -4.8 67 -4 -4 по сезону 1027.1 1020.9
15 14.12 В 3-5
{6}
н/о н/о +0.6 -2.8 78 -4 -4 по сезону 1027.5 1021.3
16 14.12 В 3-4
{5}
н/о н/о +0.6 -2.1 82 -4 -4 тепло 1027.7 1021.5
17 14.12 В 4-5
{5}
н/о н/о +0.5 -2.1 83 -5 -5 по сезону 1028.0 1021.7
18 14.12 В 4 н/о н/о +0.4 -2.2 83 -5 -5 по сезону 1028.2 1021.9 0.0 +1.1 0.0
19 14.12 В 4-6
{6}
н/о н/о +0.4 -2.1 83 -5 -5 тепло 1028.5 1022.2
20 14.12 В 3-5
{5}
н/о н/о +0.3 -2.1 84 -4 -4 по сезону 1028.9 1022.6
21 14.12 В 4-6
{6}
н/о н/о +0.2 -2.3 83 -5 -5 по сезону 1029.3 1023.0
22 14.12 В 4-5
{6}
н/о н/о 0.0 -2.7 82 -5 -5 тепло 1029.3 1023.0
23 14.12 В 4-5
{6}
н/о н/о -0.3 -2.8 83 -6 -6 по сезону 1029.2 1022.9
00 15.12 В 4 н/о н/о -0.4 -3.1 82 -6 -6 прохладно 1029.4 1023.1
01 15.12 В 3-4
{6}
н/о н/о -0.4 -3.6 79 -5 -5 тепло 1029.5 1023.2
02 15.12 В 4-5
{6}
н/о н/о -0.5 -4.2 76 -6 -6 по сезону 1029.7 1023.4
03 15.12 В 3-5
{6}
н/о н/о -0.4 -4.3 75 -5 -5 по сезону 1029.5 1023.2
04 15.12 В 3-4
{5}
н/о н/о -0.4 -5.2 70 -5 -5 тепло 1029.7 1023.4
05 15.12 В 2-4
{5}
н/о н/о -0.3 -5.1 70 -4 -4 по сезону 1029.7 1023.4
06 15.12 В 3 н/о н/о -0.4 -4.4 74 -5 -5 по сезону 1029.8 1023.5 -0.5 +0.4
07 15.12 СВ 3-4
{4}
н/о н/о -0.5 -3.9 78 -5 -5 тепло 1030.1 1023.8
08 15.12 В 3-4
{4}
н/о н/о -0.4 -3.5 80 -5 -5 по сезону 1030.2 1023.9
09 15.12 СВ 2 н/о н/о -0.1 -3.0 81 -4 -4 по сезону 1030.3 1024.0
10 15.12 СВ 3-4
{4}
н/о н/о +0.3 -2.7 80 -4 -4 тепло 1030.1 1023.8
11 15.12 СВ 3-4
{5}
н/о н/о +0.4 -2.6 80 -4 -4 по сезону 1029.6 1023.3
12 15.12 СВ 2-2
{5}
н/о н/о +0.6 -2.4 80 -3 -3 по сезону 1029.2 1022.9
13 15.12 В 3-4
{4}
н/о н/о +0.7 -2.4 80 -4 -4 тепло 1028.8 1022.5
14 15.12 В 3-3
{4}
н/о н/о +0.7 -2.4 80 -4 -4 по сезону 1028.7 1022.4
15 15.12 В 2-3
{4}
н/о н/о +0.6 -2.1 82 -3 -3 по сезону 1028.7 1022.4
16 15.12 В 2-4
{4}
н/о н/о +0.4 -2.0 84 -3 -3 тепло 1028.3 1022.0
17 15.12 В 3-4
{4}
н/о н/о +0.3 -2.0 85 -4 -4 по сезону 1027.9 1021.6
18 15.12 В 3 н/о н/о +0.2 -1.9 86 -4 -4 по сезону 1027.4 1021.1 -0.5 +0.8 0.0
19 15.12 В 3-4
{5}
н/о н/о +0.1 -1.7 88 -5 -5 тепло 1026.9 1020.6
20 15.12 В 3-4
{5}
н/о н/о +0.1 -1.6 88 -5 -5 по сезону 1026.2 1020.0
21 15.12 В 3-3
{5}
н/о н/о -0.1 -1.7 89 -5 -5 по сезону 1025.5 1019.3 0.0
22 15.12 В 3-4
{5}
н/о н/о -0.1 -1.7 89 -5 -5 тепло 1024.9 1018.7
23 15.12 В 3-4
{4}
н/о н/о 0.0 -1.5 90 -5 -5 по сезону 1023.9 1017.7
00 16.12 В 3 н/о н/о +0.3 -1.7 86 -4 -4 по сезону 1023.1 1016.9
01 16.12 В 5-7
{7}
н/о н/о +0.2 -2.1 85 -6 -6 тепло 1022.5 1016.3
02 16.12 ЮВ 4-7
{8}
н/о н/о +0.1 -2.8 81 -5 -5 по сезону 1021.7 1015.5
03 16.12 ЮВ 3-6
{8}
н/о н/о 0.0 -4.4 72 -4 -4 по сезону 1021.2 1015.0
04 16.12 В 4-6
{6}
н/о н/о -0.1 -4.8 71 -5 -5 тепло 1020.5 1014.3
05 16.12 В 4-6
{6}
н/о н/о -0.3 -3.5 79 -6 -6 по сезону 1019.7 1013.5
06 16.12 В 5 н/о н/о -0.3 -3.7 78 -6 -6 по сезону 1018.8 1012.6 -0.4 +0.3 0.0
07 16.12 ЮВ 4-7
{7}
н/о н/о -0.3 -3.7 78 -6 -6 тепло 1018.3 1012.1
08 16.12 ЮВ 5-8
{9}
н/о н/о -0.1 -5.5 67 -6 -6 по сезону 1018.4 1012.2
09 16.12 ЮВ 4 н/о н/о 0.0 -5.3 67 -5 -5 по сезону 1018.1 1011.9
10 16.12 ЮВ 5-8
{8}
н/о н/о 0.0 -5.8 65 -6 -6 по сезону 1017.4 1011.2
11 16.12 ЮВ 5-7
{8}
н/о н/о -0.1 -6.0 64 -6 -6 по сезону 1016.7 1010.5
12 16.12 Ю 5-7
{9}
н/о н/о -0.1 -6.5 62 -6 -6 прохладно 1016.0 1009.8
13 16.12 Ю 3-6
{8}
н/о н/о 0.0 -6.4 62 -4 -4 тепло 1015.1 1008.9
14 16.12 ЮВ 3-5
{8}
н/о н/о 0.0 -6.2 63 -4 -4 по сезону 1014.9 1008.7
15 16.12 ЮВ 3-5
{8}
н/о н/о -0.2 -6.1 64 -4 -4 по сезону 1015.0 1008.8
16 16.12 ЮВ 3-4
{6}
н/о н/о -0.7 -5.9 68 -5 -5 тепло 1014.9 1008.7
17 16.12 ЮВ 3-4
{5}
н/о н/о -0.8 -5.5 70 -5 -5 по сезону 1015.2 1009.0
18 16.12 ЮВ 2 н/о н/о -0.9 -5.3 72 -4 -4 по сезону 1015.2 1009.0 -1.1 +0.1
19 16.12 ЮВ 4-5
{5}
н/о н/о -0.8 -5.5 70 -6 -6 тепло 1015.5 1009.3
20 16.12 ЮВ 3-5
{5}
н/о н/о -1.0 -5.3 73 -6 -6 по сезону 1015.5 1009.3
21 16.12 Ю 3-4
{5}
н/о н/о -1.4 -3.9 83 -6 -6 прохладно 1015.5 1009.3 0.0
22 16.12 Ю 2-3
{5}
н/о н/о -1.5 -3.4 87 -5 -5 тепло 1015.9 1009.7
23 16.12 ЮВ 2-4
{4}
н/о н/о -1.5 -3.1 89 -5 -5 по сезону 1015.8 1009.6
00 17.12 Ю 2 н/о н/о -1.2 -2.9 88 -5 -5 по сезону 1016.2 1010.0 0.0
01 17.12 Ю 1-2
{3}
н/о н/о -1.1 -2.8 88 -3 -3 тепло 1016.5 1010.3
02 17.12 Ю 2-3
{3}
н/о н/о -1.0 -2.8 88 -5 -5 по сезону 1016.7 1010.5
03 17.12 Ю 2-3
{3}
н/о н/о -0.8 -2.8 86 -5 -5 по сезону 1017.1 1010.9 0.0
04 17.12 ЮВ 2-2
{3}
н/о н/о -0.7 -2.7 86 -4 -4 тепло 1017.2 1011.0
05 17.12 Ю 1-2
{2}
н/о н/о -0.6 -2.7 86 -3 -3 по сезону 1017.7 1011.5
06 17.12 Ю 2 н/о н/о -0.5 -2.6 86 -4 -4 по сезону 1018.3 1012.1 -1.5 -0.5 0.0
07 17.12 ЮЗ 2-3
{3}
н/о н/о -0.2 -2.4 85 -4 -4 тепло 1019.0 1012.8
08 17.12 ЮЗ 1-3
{3}
н/о н/о 0.0 -2.2 85 -2 -2 по сезону 1019.8 1013.6
09 17.12 ЮЗ 2 н/о н/о +0.4 -2.0 84 -3 -3 по сезону 1020.3 1014.1 0.0
10 17.12 Ю 1-2
{3}
н/о н/о +1.0 -1.5 83 -1 -1 тепло 1020.8 1014.6
11 17.12 Ю 1-2
{3}
н/о н/о +1.4 -0.9 85 -0 -0 тепло 1020.9 1014.7
12 17.12 ЮВ 2-2
{3}
н/о н/о +1.6 -0.6 85 -2 -2 по сезону 1020.6 1014.4 0.0
13 17.12 Ю 2-3
{3}
н/о н/о +1.7 -0.4 86 -2 -2 тепло 1021.1 1014.9
14 17.12 ЮВ 2-2
{3}
н/о н/о +1.8 -0.2 87 -2 -2 по сезону 1021.6 1015.4
15 17.12 Ю 1-2
{3}
н/о н/о +1.8 0.0 88 0 0 по сезону 1022.1 1015.9 0.0
16 17.12 Ю 2-3
{3}
н/о н/о +2.2 +0.2 87 -1 -1 тепло 1022.6 1016.4
17 17.12 ЮВ 1-2
{3}
н/о н/о +2.3 +0.4 87 +1 +1 тепло 1023.0 1016.8
18 17.12 В 2 н/о н/о +2.3 +0.5 88 -1 -1 по сезону 1023.6 1017.4 -0.5 +2.5
19 17.12 ЮВ 1-2
{2}
н/о н/о +2.3 +0.5 88 +1 +1 тепло 1024.0 1017.8
20 17.12 В 2-2
{2}
н/о н/о +2.2 +0.5 89 -1 -1 тепло 1024.4 1018.2
21 17.12 ЮВ 1-2
{2}
н/о н/о +2.2 +0.6 89 0 0 по сезону 1024.6 1018.4
22 17.12 В 2-2
{3}
н/о н/о +2.2 +0.5 89 -1 -1 тепло 1024.7 1018.5
23 17.12 В 2-2
{3}
н/о н/о +2.3 +0.7 89 -1 -1 тепло 1025.0 1018.8
00 18.12 Ю 1 н/о н/о +2.3 +0.6 89 +1 +1 по сезону 1024.8 1018.6
01 18.12 Ю 2-2
{3}
н/о н/о +2.3 +0.7 89 -1 -1 тепло 1024.8 1018.6
02 18.12 Ю 1-2
{2}
н/о н/о +2.5 +1.2 91 +1 +1 тепло 1025.1 1018.9
03 18.12 Ю 1-2
{3}
н/о н/о +2.9 +1.5 90 +1 +1 по сезону 1025.0 1018.8 0.0
04 18.12 Ю 2-3
{3}
н/о н/о +3.3 +1.9 91 0 0 тепло 1025.2 1019.0
05 18.12 ЮЗ 2-3
{3}
н/о н/о +3.5 +2.3 92 0 0 тепло 1025.3 1019.1
06 18.12 ЮЗ 3 н/о н/о +3.7 +2.5 92 -0 -0 по сезону 1025.4 1019.2 +2.1 +3.7 0.0
07 18.12 ЮЗ 3-3
{5}
н/о н/о +4.0 +2.6 91 0 0 тепло 1025.8 1019.6
08 18.12 ЮЗ 3-5
{5}
н/о н/о +4.2 +2.7 90 0 0 тепло 1026.1 1019.9
09 18.12 ЮЗ 3 н/о н/о +4.3 +2.6 89 +1 +1 по сезону 1026.4 1020.2 0.0
10 18.12 ЮЗ 3-4
{4}
н/о н/о +4.8 +2.8 87 +1 +1 тепло 1026.2 1020.1
11 18.12 ЮЗ 3-5
{5}
н/о н/о +5.4 +3.1 85 +2 +2 тепло 1026.1 1020.0
12 18.12 ЮЗ 2-4
{5}
н/о н/о +6.4 +3.5 82 +4 +4 тепло 1025.5 1019.4 0.0
13 18.12 Ю 2-3
{4}
н/о н/о +5.9 +2.9 81 +4 +4 тепло 1025.3 1019.2
14 18.12 Ю 2-3
{3}
н/о н/о +5.7 +3.4 85 +3 +3 тепло 1025.3 1019.2
15 18.12 Ю 2-3
{4}
н/о н/о +5.7 +3.1 83 +3 +3 тепло 1025.2 1019.1
16 18.12 ЮВ 2-3
{4}
н/о н/о +4.9 +2.7 86 +2 +2 тепло 1025.0 1018.9
17 18.12 ЮВ 3-5
{5}
н/о н/о +4.1 +2.6 90 0 0 тепло 1025.1 1019.0
18 18.12 ЮВ 3 н/о н/о +3.3 +2.1 92 -1 -1 по сезону 1025.0 1018.8 +3.3 +6.7
19 18.12 ЮВ 3-5
{5}
н/о н/о +3.0 +1.7 91 -1 -1 тепло 1024.8 1018.6
20 18.12 ЮВ 3-5
{6}
н/о н/о +2.6 +1.3 91 -2 -2 тепло 1024.6 1018.4
21 18.12 ЮВ 3-4
{6}
н/о н/о +2.3 +0.9 90 -2 -2 по сезону 1024.1 1017.9
22 18.12 ЮВ 4-6
{6}
н/о н/о +1.5 +0.2 91 -4 -4 тепло 1023.4 1017.2
23 18.12 ЮВ 3-5
{6}
н/о н/о +1.1 -0.1 92 -3 -3 по сезону 1023.0 1016.8
00 19.12 ЮВ 4 н/о н/о +0.8 -0.4 92 -5 -5 по сезону 1022.2 1016.0
01 19.12 ЮВ 4-6
{6}
н/о н/о +1.1 -0.5 89 -4 -4 тепло 1021.8 1015.6
02 19.12 ЮВ 4-5
{6}
н/о н/о +0.6 -0.8 90 -5 -5 по сезону 1021.5 1015.3
03 19.12 ЮВ 3-5
{6}
н/о н/о +0.3 -0.9 92 -4 -4 по сезону 1021.0 1014.8
04 19.12 ЮВ 3-4
{5}
н/о н/о +0.5 -0.9 90 -4 -4 тепло 1020.6 1014.4
05 19.12 ЮВ 4-7
{7}
н/о н/о +0.8 -0.7 90 -5 -5 по сезону 1019.7 1013.5
06 19.12 ЮВ 5 н/о н/о +1.4 -0.6 87 -4 -4 по сезону 1019.3 1013.1 +0.2 +3.4
07 19.12 ЮВ 4-6
{7}
н/о н/о +1.1 -1.0 86 -4 -4 по сезону 1019.2 1013.0
08 19.12 ЮВ 5-7
{7}
н/о н/о +1.3 -1.1 84 -4 -4 по сезону 1019.0 1012.8

 

Местоположение метеостанции Berlin (Германия): широта 52.47 долгота 13.40 высота над уровнем моря 50 м.

В архиве по умолчанию представлена погода в Berlin за последнюю неделю. Архивные данные за месяц целиком и за предыдущие месяцы, начиная с января 2011 года, Вы можете получить, выбрав интересующий диапазон дат из раскрывающегося списка и нажав кнопку "Ввод!".


*Определитесь, кто Вы:
робот инопланетянин человек

Внимание! Время в таблицах - всемирное. Для получения местного времени необходимо прибавить поправку, которая в Berlin равна 1 ч.

Смотрите также архив погоды в соседних городах и на ближайших метеорологических станциях:

Погода в Berlin-Dahlem (Германия) (7 км)
Погода в Berlin-Tegel (Германия) (12 км)
Погода в Berlin-Schonefeld (Германия) (13 км)
Погода в Potsdam (Германия) (25 км)
Погода в Baruth (Германия) (42 км)
Погода в Lindenberg (Германия) (56 км)
Погода в Neuruppin (Германия) (62 км)
Погода в Angermuende (Германия) (74 км)
Погода в Wiesenburg (Германия) (74 км)
Погода в Manschnow (Германия) (78 км)

Пояснения к столбцам:

Ветер - указаны скорость ветра в м/с - средняя за 10 мин, порывы в срок и между сроками (в фигурных скобках) и направление, откуда дует ветер: С - северный, СВ - северо-восточный, В - восточный, ЮВ - юго-восточный, Ю - южный, ЮЗ - юго-западный, З - западный, СЗ - северо-западный.
Видимость - горизонтальная дальность видимости в метрах или километрах. При видимости от 1 до 10 км при отсутствии осадков обычно наблюдается дымка, при ухудшении видимости до 1 км и менее - туман. В сухую погоду видимость может ухудшаться дымом, пылью или мглою.
Явления - указаны атмосферные явления, наблюдавшиеся в срок или в последний час перед сроком; фигурными скобками обозначены явления, наблюдавшиеся между сроками (за 1-3 часа до срока); квадратными скобками обозначены град или гололедные отложения с указанием их диаметра в мм.
Облачность - указаны через наклонную черту общая и нижняя облачность в баллах и высота нижней границы облаков в метрах; квадратными скобками обозначены формы облаков: Ci - перистые, Cs - перисто-слоистые, Cc - перисто-кучевые, Ac - высококучевые, As - высокослоистые, Sc - слоисто-кучевые, Ns - слоисто-дождевые, Cu - кучевые, Cb - кучево-дождевые. Подробнее классификацию облаков см. в Атласе облаков (PDF).
T - Температура воздуха - температура, измеренная на высоте 2 м над землей.
Td - Температура точки росы - температура, при понижении до которой содержащийся в воздухе водяной пар достигнет насыщения.
f - Относительная влажность воздуха - влажноcть воздуха, измеренная на высоте 2 м над землей.
Te - Эффективная температура - температура, которую ощущает одетый по сезону человек в тени. Характеристика душности погоды. При расчете учитывается влияние влажности воздуха и скорости ветра на теплоощущения человека.
Tes - Эффективная температура на солнце - температура, которую ощущает человек, с поправкой на солнечный нагрев. Характеристика знойности погоды. Зависит от высоты солнца над горизонтом, облачности и скорости ветра. Ночью, в пасмурную погоду, а также при ветре 12 м/с и более поправка равна нулю.
P - Атмосферное давление - приведенное к уровню моря атмосферное давление.
Po - Атмосферное давление - измеренное на уровне метеостанции атмосферное давление.
Tmin - Минимальная температура - минимум температуры воздуха на высоте 2 м над землей.
Tmax - Максимальная температура - максимум температуры воздуха на высоте 2 м над землей.
R - Количество осадков - Количество выпавших осадков за период времени, мм. При наведении курсора мыши на число - период времени, за который выпало указанное количество осадков.
R24 - Количество осадков - Количество выпавших осадков за 24 часа, мм.
S - Снежный покров - Высота снежного покрова, см. При наведении курсора мыши на число - состояние снежного покрова и степень покрытия местности в баллах.